Watertown, WI

2:21 AM CDT on August 18, 2017 (GMT -0500)
Watertown Municipal

Weather History for KRYV - April, 2013

Change the Weather History Date:

Thursday, April 25, 2013

  Actual Average Record
Temperature  
Mean Temperature 42 °F -  
Max Temperature 50 °F 62 °F 85 °F (1990)
Min Temperature 36 °F 39 °F 25 °F (1972)
Degree Days  
Heating Degree Days 22    
Moisture  
Dew Point 31 °F    
Average Humidity 64    
Maximum Humidity 91    
Minimum Humidity 42    
Precipitation  
Precipitation 0.07 in - - ()
Sea Level Pressure  
Sea Level Pressure 30.13 in    
Wind  
Wind Speed 10 mph (WSW)    
Max Wind Speed 18 mph    
Max Gust Speed 29 mph    
Visibility 10 miles    
Events Rain    
Averages and records for this station are not official NWS values.
T = Trace of Precipitation, MM = Missing Value Source: NWS Daily Summary

Daily Weather History Graph

Daily Weather History Graph

Search for Another Location

Airport or City:

Trip Planner

Search our weather history database for the weather conditions in past years. The results will help you decide how hot, cold, wet, or windy it might be!

Date:

Astronomy

Apr. 25, 2013 Rise Set
Actual Time 5:56 AM CDT 7:49 PM CDT
Civil Twilight 5:26 AM CDT 8:20 PM CDT
Nautical Twilight 4:48 AM CDT 8:57 PM CDT
Astronomical Twilight 4:08 AM CDT 9:38 PM CDT
Moon 8:03 PM CDT (4/25) 5:39 AM CDT (4/25)
Length of Visible Light 14h 54m
Length of Day
13h 53m
Full, 100% of the Moon is Illuminated
Apr 25
Full
Apr 25
Full
May 2
Last Quarter
May 9
New
May 17
First Quarter

Hourly Weather History & Observations

Time (CDT) Temp. Windchill Dew Point Humidity Pressure Visibility Wind Dir Wind Speed Gust Speed Precip Events Conditions
12:15 AM 43.7 °F 38.1 °F 30.0 °F 59% 29.99 in 10.0 mi SSW 10.4 mph - N/A   Mostly Cloudy
12:35 AM 43.7 °F 37.7 °F 30.4 °F 59% 29.99 in 10.0 mi SW 11.5 mph 18.4 mph N/A   Overcast
12:55 AM 43.9 °F 37.2 °F 30.0 °F 58% 29.98 in 10.0 mi SW 13.8 mph 24.2 mph N/A   Overcast
1:15 AM 43.7 °F 36.9 °F 30.6 °F 60% 29.98 in 10.0 mi SW 13.8 mph 19.6 mph N/A   Overcast
1:35 AM 43.5 °F 37.1 °F 31.6 °F 63% 29.97 in 10.0 mi WSW 12.7 mph 20.7 mph N/A   Overcast
1:55 AM 43.0 °F 35.4 °F 32.0 °F 65% 29.96 in 10.0 mi SW 16.1 mph 23.0 mph N/A   Overcast
2:15 AM 41.9 °F 34.6 °F 33.4 °F 72% 29.96 in 10.0 mi SW 13.8 mph 19.6 mph N/A   Scattered Clouds
2:35 AM 41.0 °F 32.8 °F 33.8 °F 76% 29.96 in 10.0 mi SW 16.1 mph - N/A   Mostly Cloudy
2:55 AM 40.5 °F 31.8 °F 33.8 °F 77% 29.96 in 10.0 mi SW 17.3 mph 21.9 mph N/A   Scattered Clouds
3:15 AM 39.7 °F 31.5 °F 34.0 °F 80% 29.96 in 10.0 mi SW 15.0 mph - N/A   Scattered Clouds
3:35 AM 39.6 °F 32.1 °F 34.2 °F 81% 29.96 in 10.0 mi SW 12.7 mph 18.4 mph N/A   Scattered Clouds
3:55 AM 39.9 °F 30.8 °F 34.5 °F 81% 29.99 in 10.0 mi West 18.4 mph 28.8 mph 0.01 in   Mostly Cloudy
4:15 AM 36.9 °F 30.7 °F 34.3 °F 91% 29.98 in 4.0 mi WSW 8.1 mph 16.1 mph 0.02 in Rain Light Rain
4:35 AM 37.8 °F 31.8 °F 34.7 °F 89% 29.99 in 10.0 mi West 8.1 mph - 0.02 in   Overcast
4:55 AM 37.9 °F 33.5 °F 34.3 °F 87% 30.00 in 10.0 mi WSW 5.8 mph - 0.02 in   Overcast
5:15 AM 38.3 °F 32.5 °F 34.5 °F 86% 30.01 in 10.0 mi WNW 8.1 mph - N/A   Overcast
5:35 AM 37.9 °F 34.4 °F 33.4 °F 84% 30.01 in 10.0 mi WNW 4.6 mph - N/A   Overcast
5:55 AM 37.6 °F 35.1 °F 33.8 °F 86% 30.02 in 10.0 mi NW 3.5 mph - N/A Rain Light Rain
6:15 AM 37.4 °F 34.9 °F 34.0 °F 87% 30.03 in 10.0 mi WNW 3.5 mph - N/A   Overcast
6:35 AM 37.9 °F 29.6 °F 34.5 °F 87% 30.04 in 10.0 mi West 13.8 mph 17.3 mph N/A Rain Light Rain
6:55 AM 36.0 °F 32.1 °F 33.3 °F 90% 30.05 in 5.0 mi WNW 4.6 mph - 0.04 in Rain Light Rain
7:15 AM 36.5 °F 30.3 °F 34.0 °F 91% 30.06 in 10.0 mi West 8.1 mph - N/A   Overcast
7:35 AM 37.2 °F 31.2 °F 33.8 °F 87% 30.07 in 10.0 mi West 8.1 mph - N/A   Mostly Cloudy
7:55 AM 38.3 °F 31.9 °F 34.3 °F 86% 30.08 in 10.0 mi West 9.2 mph - N/A   Overcast
8:15 AM 39.2 °F 31.6 °F 34.7 °F 84% 30.09 in 10.0 mi West 12.7 mph 16.1 mph N/A   Mostly Cloudy
8:35 AM 39.7 °F 32.3 °F 34.0 °F 80% 30.10 in 10.0 mi WNW 12.7 mph 18.4 mph N/A   Mostly Cloudy
8:55 AM 41.0 °F 33.1 °F 34.7 °F 78% 30.11 in 10.0 mi West 15.0 mph 18.4 mph N/A   Mostly Cloudy
9:55 AM 41.5 °F 34.6 °F 33.8 °F 74% 30.13 in 10.0 mi West 12.7 mph 18.4 mph N/A   Overcast
10:15 AM 43.7 °F 36.6 °F 33.3 °F 67% 30.14 in 10.0 mi West 15.0 mph 21.9 mph N/A   Mostly Cloudy
10:55 AM 43.9 °F 37.5 °F 31.8 °F 63% 30.16 in 10.0 mi WNW 12.7 mph - N/A   Mostly Cloudy
11:55 AM 44.6 °F 39.7 °F 29.7 °F 56% 30.17 in 10.0 mi WNW 9.2 mph - N/A   Mostly Cloudy
12:15 PM 47.1 °F - 30.4 °F 52% 30.18 in 10.0 mi West 10.4 mph 16.1 mph N/A   Mostly Cloudy
12:35 PM 46.2 °F 40.8 °F 29.1 °F 51% 30.19 in 10.0 mi West 11.5 mph - N/A   Mostly Cloudy
12:55 PM 46.8 °F - 29.1 °F 50% 30.19 in 10.0 mi West 11.5 mph - N/A   Overcast
1:15 PM 46.6 °F - 27.9 °F 48% 30.20 in 10.0 mi WNW 8.1 mph - N/A   Overcast
1:35 PM 46.8 °F - 28.0 °F 48% 30.20 in 10.0 mi West 10.4 mph - N/A   Overcast
1:55 PM 46.8 °F - 28.2 °F 49% 30.21 in 10.0 mi West 10.4 mph - N/A   Mostly Cloudy
2:15 PM 47.3 °F - 28.0 °F 47% 30.21 in 10.0 mi West 10.4 mph 19.6 mph N/A   Mostly Cloudy
2:35 PM 47.3 °F - 28.2 °F 48% 30.22 in 10.0 mi WSW 11.5 mph 16.1 mph N/A   Mostly Cloudy
2:55 PM 47.3 °F - 27.1 °F 46% 30.21 in 10.0 mi West 9.2 mph - N/A   Mostly Cloudy
3:15 PM 47.3 °F - 28.6 °F 48% 30.21 in 10.0 mi West 11.5 mph 16.1 mph N/A   Mostly Cloudy
3:35 PM 49.5 °F - 28.2 °F 44% 30.21 in 10.0 mi WSW 10.4 mph - N/A   Mostly Cloudy
3:55 PM 49.3 °F - 27.9 °F 44% 30.21 in 10.0 mi WSW 10.4 mph 19.6 mph N/A   Mostly Cloudy
4:15 PM 47.3 °F - 26.2 °F 44% 30.22 in 10.0 mi WSW 6.9 mph - N/A   Mostly Cloudy
4:35 PM 49.8 °F - 27.7 °F 42% 30.22 in 10.0 mi WSW 9.2 mph - N/A   Mostly Cloudy
4:55 PM 49.3 °F - 27.0 °F 42% 30.22 in 10.0 mi WSW 6.9 mph - N/A   Scattered Clouds
5:15 PM 48.4 °F - 27.3 °F 44% 30.22 in 10.0 mi West 6.9 mph - N/A   Scattered Clouds
6:15 PM 49.6 °F - 27.7 °F 43% 30.23 in 10.0 mi WSW 6.9 mph - N/A   Clear
6:35 PM 48.4 °F - 27.3 °F 44% 30.23 in 10.0 mi SW 9.2 mph - N/A   Mostly Cloudy
6:55 PM 48.2 °F - 27.3 °F 44% 30.22 in 10.0 mi SW 8.1 mph - N/A   Scattered Clouds
7:15 PM 47.3 °F - 27.5 °F 46% 30.23 in 10.0 mi SW 6.9 mph - N/A   Clear
7:35 PM 46.2 °F 42.7 °F 27.5 °F 48% 30.23 in 10.0 mi SW 6.9 mph - N/A   Clear
7:55 PM 45.0 °F 42.6 °F 27.7 °F 51% 30.22 in 10.0 mi SW 4.6 mph - N/A   Clear
8:15 PM 42.8 °F 41.1 °F 27.1 °F 54% 30.23 in 10.0 mi SSW 3.5 mph - N/A   Clear
8:35 PM 43.0 °F 41.3 °F 28.4 °F 56% 30.23 in 10.0 mi South 3.5 mph - N/A   Clear
8:55 PM 42.1 °F 40.2 °F 29.3 °F 61% 30.24 in 10.0 mi South 3.5 mph - N/A   Clear
9:15 PM 41.7 °F 39.8 °F 30.0 °F 63% 30.25 in 10.0 mi South 3.5 mph - N/A   Clear
9:35 PM 39.2 °F - 30.2 °F 70% 30.26 in 10.0 mi Calm Calm - N/A   Clear
9:55 PM 39.0 °F - 29.8 °F 70% 30.26 in 10.0 mi Calm Calm - N/A   Clear
10:15 PM 39.4 °F 37.2 °F 30.0 °F 69% 30.27 in 10.0 mi South 3.5 mph - N/A   Clear
10:35 PM 39.7 °F 37.6 °F 29.3 °F 66% 30.27 in 10.0 mi South 3.5 mph - N/A   Clear
10:55 PM 39.7 °F 37.6 °F 29.3 °F 66% 30.28 in 10.0 mi South 3.5 mph - N/A   Clear
11:15 PM 39.2 °F 37.0 °F 29.1 °F 67% 30.28 in 10.0 mi South 3.5 mph - N/A   Clear
11:35 PM 38.8 °F 36.5 °F 29.1 °F 68% 30.28 in 10.0 mi South 3.5 mph - N/A   Clear
11:55 PM 38.3 °F - 29.1 °F 70% 30.28 in 10.0 mi Calm Calm - N/A   Clear